Airfield :
LOGIN :

Register | Disclaimer

   EN    FR    IT 

 










Legend :    VFR   Marginal VFR   IFR   Intensive IFR   Very Intensive IFR
Visi :
Ceiling :
>= 8 km
>= 3000ft
5 to 8 km
1000 to 3000 ft
1500m to 5 km
500 to 1000 ft
800 to 1500m
200 to 500 ft
< 800m
< 200 ft
Symbols :   Thunderstorms  Fog  Heavy snow  Heavy precipitations  Wind > 20 kt
SIGMETs :     Misc.  Thunderstorms  Icing  Turbulence  Mountain Waves  Volcanic Ashes







- Airport Elevation : 1548 ft


LKNA - Náměšť Air Base

CURRENT METAR :
  • 201500Z 31010G19KT CAVOK 19/08 Q1021 NOSIG RMK BLU BLU

EXPIRED METARs :
  • 201400Z 29010KT CAVOK 20/06 Q1020 NOSIG
  • 201300Z 33011KT CAVOK 20/07 Q1020 NOSIG RMK BLU BLU

TAF TAF LKNA
Valid from the 20 at 12:00 until the 21 at 12:00 UTC


201100Z 2012/2112 30012KT 9999 SCT045
TEMPO 2012/2020 32016G30KT
BECMG 2016/2018 CAVOK
BECMG 2110/2112 33015G28KT 9999 SCT040
No reported NOTAMs for that airfield.



MET'MAP, your aeronautical weather chart ! - Copyright ORBIFLY December 2007 - Disclaimer

ORBIFLY MET'MAP TEAM :

Programming & Development : Alexandra Zaïnal
Concept & Development : Baudouin d'Aumeries
Co-Development & Prog : Marc-Olivier Méhu
Technical & hardware support : Manuel Goepfert

Contact : metmap@orbifly.com




SOURCES & CREDITS :

   NOAA